Location: Campillo
(40.8621°N, 4.2488°W)
Time: 00:25:45
(UTC+00:00)

USA 308 - Pass Details

Date: 25 September 2021
Orbit: 566 x 573 km, 54.0° (Epoch: 23 September)

Event Time Altitude Azimuth Distance (km) Brightness Sun altitude
Rises 21:02:06 0° 314° (NW) 2,773 7.5 -32.2°
Reaches altitude 10° 21:04:29 10° 322° (NW) 1,874 6.3 -32.6°
Enters shadow 21:05:51 19° 332° (NNW) 1,403 5.4 -32.8°
